Hourly Data Report for February 12, 2018

MIRAMICHI RCS
NEW BRUNSWICK

47°00'34.000" N
65°27'54.000" W
33.00 m
8100989
71744
ACQ

Download Data

Hourly Data (February 2018)
Hourly Data Report for February 12, 2018
TIME
LST
Temp Definition
°C
Dew Point Definition
°C
Rel Hum Definition
%
Precip. Amount Definition
mm

Wind Dir Definition
10's deg

Wind Spd Definition
km/h
Visibility Definition
km
Stn Press Definition
kPa
Hmdx Definition


Wind Chill Definition


Weather Definition


00:00 -5.9 -6.7 94 0.2 5 8   100.68   -10 LegendNANA
01:00 -5.1 -5.7 95 0.0 7 5   100.51   -7 LegendNANA
02:00 -4.7 -5.4 95 0.0 9 3   100.30   -6 LegendNANA
03:00 -5.0 -5.6 96 0.2 30 5   100.20   -7 LegendNANA
04:00 -5.3 -5.9 95 0.0 25 8   100.12   -9 LegendNANA
05:00 -6.1 -7.1 93 0.0 25 10   100.06   -11 LegendNANA
06:00 -5.3 -6.1 95 0.0 25 13   100.14   -10 LegendNANA
07:00 -4.2 -4.9 95 0.0 24 16   100.22   -10 LegendNANA
08:00 -3.1 -4.2 92 0.0 25 16   100.39   -8 LegendNANA
09:00 -0.7 -2.3 89 0.0 25 13   100.48   -5 LegendNANA
10:00 0.6 -0.9 90 0.8 26 13   100.60     LegendNANA
11:00 2.5 -0.1 83 0.0 25 14   100.66     LegendNANA
12:00 3.1 -2.6 66 0.0 27 27   100.70     LegendNANA
13:00 2.2 -4.1 63 0.0 27 27   100.84     LegendNANA
14:00 1.9 -5.6 57 0.0 27 28   100.93     LegendNANA
15:00 0.6 -8.1 52 0.0 27 25   101.06     LegendNANA
16:00 -0.2 -9.5 49 0.0 28 28   101.19   -7 LegendNANA
17:00 -1.6 -10.0 53 0.0 28 27   101.38   -8 LegendNANA
18:00 -2.3 -11.5 49 0.0 28 27   101.59   -9 LegendNANA
19:00 -3.3 -12.1 51 0.0 27 25   101.71   -10 LegendNANA
20:00 -4.4 -11.3 59 0.0 27 18   101.83   -10 LegendNANA
21:00 -5.4 -11.4 63 0.0 27 12   101.97   -10 LegendNANA
22:00 -6.2 -14.2 53 0.0 28 23   102.05   -14 LegendNANA
23:00 -7.9 -18.2 43 0.0 29 26   102.19   -16 LegendNANA

Notes on Data Quality.

Legend

  • E = Estimated
  • M = Missing
  • NA = Not Available*
  • [empty] = Indicates an unobserved value
Date modified: